• In Latvia
  • List of Countries
  • For 7 days
  • Water Temperature
  • Satellite Maps
  • Weather Map
  • Weather Widgets
  • user-avatar
    Login

    Hourly Weather Koudougou

    Today, 21 October, Saturday

    Time Temperature Precipitation Wind Pressure Humidity
    00:00 +28°C° 0 mm 2 mps 733 mmHg 22%
    01:00 +27°C° 0 mm 2 mps 733 mmHg 22%
    02:00 +27°C° 0 mm 2 mps 733 mmHg 23%
    03:00 +27°C° 0 mm 2 mps 732 mmHg 24%
    04:00 +26°C° 0 mm 2 mps 733 mmHg 26%
    05:00 +26°C° 0 mm 2 mps 733 mmHg 27%
    06:00 +26°C° 0 mm 2 mps 733 mmHg 30%
    07:00 +28°C° 0 mm 3 mps 733 mmHg 30%
    08:00 +31°C° 0 mm 3 mps 734 mmHg 29%
    09:00 +35°C° 0 mm 3 mps 734 mmHg 28%
    10:00 +36°C° 0 mm 3 mps 734 mmHg 24%
    11:00 +38°C° 0 mm 3 mps 733 mmHg 19%
    12:00 +39°C° 0 mm 2 mps 734 mmHg 19%
    13:00 +40°C° 0 mm 3 mps 733 mmHg 16%
    14:00 +41°C° 0 mm 4 mps 733 mmHg 14%
    15:00 +42°C° 0 mm 4 mps 732 mmHg 11%
    16:00 +40°C° 0 mm 4 mps 732 mmHg 12%
    17:00 +37°C° 0 mm 3 mps 732 mmHg 13%
    18:00 +35°C° 0 mm 2 mps 732 mmHg 14%
    19:00 +34°C° 0 mm 2 mps 732 mmHg 14%
    20:00 +32°C° 0 mm 2 mps 733 mmHg 15%
    21:00 +31°C° 0 mm 3 mps 733 mmHg 16%
    22:00 +30°C° 0 mm 2 mps 733 mmHg 17%
    23:00 +29°C° 0 mm 2 mps 733 mmHg 19%

    Tomorrow, 22 October, Sunday

    Time Temperature Precipitation Wind Pressure Humidity
    00:00 +28°C° 0 mm 1 mps 733 mmHg 20%
    01:00 +27°C° 0 mm 1 mps 733 mmHg 21%
    02:00 +27°C° 0 mm 1 mps 732 mmHg 22%
    03:00 +26°C° 0 mm 1 mps 732 mmHg 23%
    04:00 +26°C° 0 mm 1 mps 732 mmHg 23%
    05:00 +25°C° 0 mm 1 mps 732 mmHg 24%
    06:00 +25°C° 0 mm 1 mps 732 mmHg 24%
    07:00 +28°C° 0 mm 1 mps 733 mmHg 20%
    08:00 +31°C° 0 mm 2 mps 733 mmHg 17%
    09:00 +36°C° 0 mm 2 mps 734 mmHg 13%
    10:00 +37°C° 0 mm 2 mps 734 mmHg 11%
    11:00 +39°C° 0 mm 2 mps 733 mmHg 9%
    12:00 +41°C° 0 mm 2 mps 733 mmHg 8%
    13:00 +41°C° 0 mm 2 mps 732 mmHg 7%
    14:00 +42°C° 0 mm 2 mps 731 mmHg 7%
    15:00 +42°C° 0 mm 2 mps 730 mmHg 6%
    16:00 +40°C° 0 mm 2 mps 731 mmHg 7%
    17:00 +37°C° 0 mm 2 mps 731 mmHg 9%
    18:00 +34°C° 0 mm 2 mps 731 mmHg 10%
    19:00 +32°C° 0 mm 2 mps 731 mmHg 11%
    20:00 +31°C° 0 mm 3 mps 732 mmHg 12%
    21:00 +30°C° 0 mm 3 mps 732 mmHg 13%
    22:00 +30°C° 0 mm 2 mps 732 mmHg 15%
    23:00 +29°C° 0 mm 2 mps 732 mmHg 17%

    Day after tomorrow, 23 October, Monday

    Time Temperature Precipitation Wind Pressure Humidity
    00:00 +28°C° 0 mm 2 mps 732 mmHg 19%
    01:00 +27°C° 0 mm 1 mps 732 mmHg 20%
    02:00 +26°C° 0 mm 1 mps 731 mmHg 22%
    03:00 +25°C° 0 mm 1 mps 731 mmHg 23%
    04:00 +25°C° 0 mm 1 mps 731 mmHg 24%
    05:00 +25°C° 0 mm 2 mps 731 mmHg 26%
    06:00 +25°C° 0 mm 2 mps 731 mmHg 27%
    07:00 +28°C° 0 mm 3 mps 732 mmHg 30%
    08:00 +31°C° 0 mm 3 mps 733 mmHg 34%
    09:00 +34°C° 0 mm 4 mps 733 mmHg 37%
    10:00 +36°C° 0 mm 3 mps 733 mmHg 31%
    11:00 +38°C° 0 mm 2 mps 732 mmHg 24%
    12:00 +40°C° 0 mm 1 mps 732 mmHg 18%
    13:00 +41°C° 0 mm 1 mps 731 mmHg 16%
    14:00 +41°C° 0 mm 1 mps 730 mmHg 13%
    15:00 +41°C° 0 mm 1 mps 729 mmHg 11%
    16:00 +39°C° 0 mm 1 mps 730 mmHg 13%
    17:00 +36°C° 0 mm 1 mps 730 mmHg 14%
    18:00 +34°C° 0 mm 1 mps 730 mmHg 15%
    19:00 +33°C° 0 mm 1 mps 730 mmHg 15%
    20:00 +32°C° 0 mm 1 mps 731 mmHg 15%
    21:00 +31°C° 0 mm 1 mps 731 mmHg 16%
    22:00 +30°C° 0 mm 2 mps 731 mmHg 18%
    23:00 +29°C° 0 mm 2 mps 731 mmHg 20%

    24 October, Tuesday

    Time Temperature Precipitation Wind Pressure Humidity
    00:00 +29°C° 0 mm 2 mps 731 mmHg 22%
    01:00 +28°C° 0 mm 1 mps 731 mmHg 25%
    02:00 +27°C° 0 mm 1 mps 730 mmHg 27%
    03:00 +27°C° 0 mm 1 mps 730 mmHg 30%
    04:00 +27°C° 0 mm 2 mps 730 mmHg 33%
    05:00 +27°C° 0 mm 2 mps 731 mmHg 36%
    06:00 +27°C° 0 mm 3 mps 731 mmHg 39%
    07:00 +29°C° 0 mm 3 mps 731 mmHg 38%
    08:00 +33°C° 0 mm 4 mps 732 mmHg 37%
    09:00 +35°C° 0 mm 4 mps 733 mmHg 35%
    10:00 +37°C° 0 mm 3 mps 732 mmHg 30%
    11:00 +39°C° 0 mm 2 mps 731 mmHg 24%
    12:00 +41°C° 0 mm 1 mps 731 mmHg 18%
    13:00 +41°C° 0 mm 1 mps 730 mmHg 16%
    14:00 +41°C° 0 mm 1 mps 730 mmHg 15%
    15:00 +42°C° 0 mm 1 mps 729 mmHg 13%
    16:00 +40°C° 0 mm 1 mps 729 mmHg 15%
    17:00 +37°C° 0 mm 1 mps 729 mmHg 16%
    18:00 +35°C° 0 mm 1 mps 729 mmHg 18%
    19:00 +35°C° 0 mm 2 mps 730 mmHg 18%
    20:00 +34°C° 0 mm 2 mps 730 mmHg 18%
    21:00 +32°C° 0 mm 2 mps 731 mmHg 18%
    22:00 +32°C° 0 mm 2 mps 731 mmHg 18%
    23:00 +31°C° 0 mm 2 mps 731 mmHg 19%

    25 October, Wednesday

    Time Temperature Precipitation Wind Pressure Humidity
    00:00 +30°C° 0 mm 2 mps 731 mmHg 19%
    01:00 +30°C° 0 mm 2 mps 730 mmHg 21%
    02:00 +29°C° 0 mm 2 mps 730 mmHg 24%
    03:00 +29°C° 0 mm 2 mps 730 mmHg 26%
    04:00 +28°C° 0 mm 2 mps 730 mmHg 29%
    05:00 +28°C° 0 mm 2 mps 730 mmHg 32%
    06:00 +28°C° 0 mm 2 mps 731 mmHg 34%
    07:00 +30°C° 0 mm 3 mps 731 mmHg 32%
    08:00 +34°C° 0 mm 3 mps 732 mmHg 30%
    09:00 +37°C° 0 mm 4 mps 732 mmHg 28%
    10:00 +38°C° 0 mm 3 mps 732 mmHg 25%
    11:00 +40°C° 0 mm 3 mps 731 mmHg 21%
    12:00 +41°C° 0 mm 2 mps 731 mmHg 18%
    13:00 +42°C° 0 mm 2 mps 730 mmHg 17%
    14:00 +42°C° 0 mm 2 mps 730 mmHg 16%
    15:00 +42°C° 0 mm 2 mps 729 mmHg 15%
    16:00 +41°C° 0 mm 2 mps 729 mmHg 18%
    17:00 +39°C° 0 mm 3 mps 730 mmHg 22%
    18:00 +37°C° 0 mm 3 mps 730 mmHg 25%
    19:00 +36°C° 0 mm 3 mps 730 mmHg 29%
    20:00 +35°C° 0 mm 3 mps 731 mmHg 34%
    21:00 +34°C° 0 mm 2 mps 731 mmHg 38%
    22:00 +32°C° 0 mm 2 mps 731 mmHg 40%
    23:00 +32°C° 0 mm 2 mps 731 mmHg 42%

    26 October, Thursday

    Time Temperature Precipitation Wind Pressure Humidity
    00:00 +31°C° 0 mm 2 mps 731 mmHg 44%
    01:00 +31°C° 0 mm 2 mps 731 mmHg 46%
    02:00 +30°C° 0 mm 2 mps 731 mmHg 48%
    03:00 +30°C° 0 mm 2 mps 731 mmHg 50%
    04:00 +30°C° 0 mm 2 mps 731 mmHg 52%
    05:00 +29°C° 0 mm 2 mps 731 mmHg 54%
    06:00 +29°C° 0 mm 2 mps 732 mmHg 57%
    07:00 +30°C° 0 mm 3 mps 732 mmHg 54%
    08:00 +33°C° 0 mm 4 mps 732 mmHg 50%
    09:00 +35°C° 0 mm 4 mps 733 mmHg 47%
    10:00 +36°C° 0 mm 4 mps 732 mmHg 41%
    11:00 +38°C° 0 mm 3 mps 732 mmHg 36%
    12:00 +39°C° 0 mm 2 mps 731 mmHg 31%
    13:00 +39°C° 0 mm 2 mps 731 mmHg 29%
    14:00 +40°C° 0 mm 2 mps 730 mmHg 28%
    15:00 +40°C° 0 mm 2 mps 729 mmHg 26%
    16:00 +38°C° 0 mm 2 mps 730 mmHg 29%
    17:00 +37°C° 0 mm 3 mps 730 mmHg 33%
    18:00 +36°C° 0 mm 3 mps 730 mmHg 36%
    19:00 +35°C° 0 mm 3 mps 731 mmHg 39%
    20:00 +34°C° 0 mm 2 mps 731 mmHg 42%
    21:00 +32°C° 0 mm 2 mps 732 mmHg 46%
    22:00 +32°C° 0 mm 2 mps 732 mmHg 46%
    23:00 +32°C° 0 mm 2 mps 731 mmHg 47%
    Show more